Regional Weather Roundup
Issued by NWS

Home | Current Version | Previous Version | Graphics & Text | Print | Product List | Glossary On
Versions: 1 2 3 4 5 6 7 8 9 10 11 12 13 14 15 16 17 18 19 20 21 22 23 24 25 26 27 28 29 30 31 32 33 34 35 36 37 38 39 40 41 42 43 44 45 46 47 48
000
ASUS45 KBOU 010107
RWRCO

WEATHER ROUNDUP FOR COLORADO
NATIONAL WEATHER SERVICE DENVER/BOULDER CO
700 PM MDT TUE SEP 30 2014

NOTE: "FAIR" INDICATES FEW OR NO CLOUDS BELOW 12000 FEET WITH NO
SIGNIFICANT WEATHER AND/OR OBSTRUCTIONS TO VISIBILITY.

COZ001>005-013-030-031-010200-
...NORTHWEST COLORADO...

CITY           SKY/WX    TMP DP  RH WIND       PRES   REMARKS
CRAIG          CLOUDY    49  42  77 SW3       29.97R
HAYDEN         MOCLDY    46  39  76 CALM      29.98R
MEEKER         LGT RAIN  49  45  86 CALM      29.98R
MOUNT WERNER   NOT AVBL
STEAMBOAT SPGS CLOUDY    44  40  88 E7        29.99R
WALDEN         CLOUDY    39  32  75 S12       29.98R
$$

COZ006>008-011-010200-
...WEST CENTRAL VALLEYS...

CITY           SKY/WX    TMP DP  RH WIND       PRES   REMARKS
GRAND JUNCTION MOCLDY    59  43  55 N8        29.91R
MONTROSE       CLEAR     56  44  64 S6        29.98R
EAGLE          MOCLDY    52  43  71 SW7       30.00R
RIFLE          MOCLDY    57  40  52 W13       29.93R
DELTA          CLEAR     59  49  68 SW3       29.95R
NUCLA          CLEAR     59  39  47 W6        30.00S
$$

COZ017>023-064>068-010200-
...SOUTHWEST COLORADO...

CITY           SKY/WX    TMP DP  RH WIND       PRES   REMARKS
DURANGO        CLEAR     56  37  49 W10       30.01R
CORTEZ         CLEAR     58  39  49 NW3       29.98S
PAGOSA SPRINGS CLEAR     50  41  71 CALM      30.06R
TELLURIDE      PTCLDY   N/A N/A N/A CALM      30.12R
WOLF CREEK PAS FOG       30  30 100 SW17G26   30.21R VSB<1/4 WCI  18
$$

COZ009-010-012-014-032>034-037-058>063-010200-
...CENTRAL COLORADO...

CITY           SKY/WX    TMP DP  RH WIND       PRES   REMARKS
ASPEN          CLOUDY    43  38  82 SE3       30.04R
BUENA VISTA    MOCLDY    49  29  45 W12       30.01R
COPPER MTN     LGT SNOW  34  30  86 W16G22    30.15S WCI  23
BERTHOUD PASS  FOG       27  23  86 W18G38    30.15R VSB 3/4 WCI  13
COTTONWOOD PAS MOCLDY    45  28  53 NW6G24    30.07S
GUNNISON       MOCLDY    45  36  70 S7        30.05S
KREMMLING      RAIN      43  36  75 N3        30.02R
LEADVILLE      CLOUDY    36  31  82 NW10      30.08R
SALIDA         CLOUDY    50  39  66 W10       30.08R
SUNLIGHT       CLOUDY    36  34  93 CALM      30.13S
WILKERSON PASS NOT AVBL
$$

COZ069>075-010200-
...SAN LUIS VALLEY/SANGRE DE CRISTO MOUNTAINS...

CITY           SKY/WX    TMP DP  RH WIND       PRES   REMARKS
ALAMOSA        PTCLDY    53  33  46 W10       29.99R
LA VETA PASS   PTCLDY    41  30  65 SW7       30.09S
SAGUACHE       PTCLDY    50  34  53 NW8       30.02R
$$

COZ035-036-038>040-010200-
...NORTHERN COLORADO FRONT RANGE...

CITY           SKY/WX    TMP DP  RH WIND       PRES   REMARKS
DENVER INTL AP CLOUDY    60  39  45 N5        29.84R
DMNS CITY PARK   N/A     62  32  32 NE3       29.85R
AURORA         MOCLDY    58  40  51 NE2       29.86R
FRONT RANGE AP NOT AVBL
ERIE MUNI ARPT RAIN      58  39  49 W13G25    29.85R
BOULDER MUN AP CLOUDY    59  36  41 SW13      29.87R
CENTENNIAL     CLOUDY    62  32  32 SW3       29.86R
BROOMFIELD     LGT RAIN  61  34  36 W17       29.87R
FORT COLLINS   CLOUDY    59  41  51 CALM      29.84R
LONGMONT       CLOUDY    61  37  40 W14       29.87R
$$

COZ041-046-047-076>085-087-088-010200-
...PIKES PEAK/PALMER DIVIDE AND SOUTHERN FOOTHILLS...

CITY           SKY/WX    TMP DP  RH WIND       PRES   REMARKS
COLO. SPRINGS  CLOUDY    62  29  28 W9        29.88R
A. F. ACADEMY  CLOUDY    60  26  27 W8        29.90R
ELLICOTT       NOT AVBL
FALCON         CLOUDY    56  34  43 N3        29.93R
FORT CARSON    CLOUDY    62  31  30 SW10G21   29.85R
LIMON          CLOUDY    58  45  62 N5        29.84S
MONUMENT HILL  CLOUDY    52  36  54 E3        29.92R
TRINIDAD       MOCLDY    65  32  29 N8        29.85R
$$

COZ042>045-048>051-090-091-010200-
...NORTHEAST COLORADO...

CITY           SKY/WX    TMP DP  RH WIND       PRES   REMARKS
GREELEY ARPT   CLOUDY    61  43  51 CALM      29.82R
AKRON          PTCLDY    61  42  49 CALM      29.81R
BURLINGTON     PTCLDY    60  45  57 S6        29.79R
WRAY           MOCLDY    65  44  46 CALM      29.76S
STERLING       CLOUDY    63  50  63 CALM      29.76S
HOLYOKE        MOCLDY    61  50  67 SE6       29.76S
FORT MORGAN    PTCLDY    62  42  47 CALM      29.81R
$$

COZ086-089-092>099-010200-
...SOUTHEAST COLORADO...

CITY           SKY/WX    TMP DP  RH WIND       PRES   REMARKS
PUEBLO         CLOUDY    70  30  22 NW18G26   29.79S
LA JUNTA       MOCLDY    67  39  35 SE7       29.77S
LAMAR          CLEAR     63  47  55 E8        29.75R
SPRINGFIELD      N/A     61  42  49 E7        29.79R
$$



USA.gov is the U.S. government's official web portal to all federal, state and local government web resources and services.